TCISK LTFH-LGMK

Flight info

Callsign TCISK
Flight time 1h 51m
Altitude 47000
Route ORVOR UW71 BAG UP29 HALIL UR32 LETSO
Aircraft C750/M-SBDE3FGHRWXY/S

Departure

Time 2026-04-24 15:13
Airport Samsun-Çarşamba Airport (LTFH)

Arrival

Time 2026-04-24 17:04
Airport Mykonos Island National Airport (LGMK)
Time Latitude Longitude Altitude Speed Heading
2026-04-24 14:54 41.25891 36.55468 50 ft 0 kts 223°
2026-04-24 15:07 41.25897 36.55476 23 ft 2 kts 223°
2026-04-24 15:08 41.25909 36.55491 21 ft 2 kts 223°
2026-04-24 15:08 41.25922 36.55507 24 ft 2 kts 223°
2026-04-24 15:08 41.25926 36.55512 25 ft 0 kts 223°
2026-04-24 15:09 41.25916 36.55506 24 ft 4 kts 191°
2026-04-24 15:09 41.25885 36.55548 45 ft 11 kts 120°
2026-04-24 15:09 41.25889 36.55678 18 ft 17 kts 49°
2026-04-24 15:10 41.25984 36.55800 34 ft 16 kts 44°
2026-04-24 15:10 41.26016 36.55923 29 ft 14 kts 117°
2026-04-24 15:10 41.25943 36.56027 35 ft 18 kts 135°
2026-04-24 15:10 41.25842 36.56163 51 ft 23 kts 134°
2026-04-24 15:11 41.25721 36.56331 21 ft 28 kts 133°
2026-04-24 15:11 41.25578 36.56532 21 ft 33 kts 133°
2026-04-24 15:11 41.25411 36.56769 19 ft 38 kts 133°
2026-04-24 15:11 41.25225 36.57035 19 ft 36 kts 132°
2026-04-24 15:12 41.25140 36.57148 22 ft 7 kts 235°
2026-04-24 15:12 41.25333 36.56870 19 ft 73 kts 313°
2026-04-24 15:12 41.25911 36.56080 228 ft 138 kts 317°
2026-04-24 15:13 41.26609 36.55145 898 ft 150 kts 316°
2026-04-24 15:13 41.27374 36.54081 1484 ft 168 kts 316°
2026-04-24 15:13 41.28236 36.52840 1945 ft 199 kts 315°
2026-04-24 15:13 41.29241 36.51418 2616 ft 219 kts 315°
2026-04-24 15:14 41.30284 36.49952 3776 ft 217 kts 315°
2026-04-24 15:14 41.31319 36.48507 4841 ft 220 kts 315°
2026-04-24 15:14 41.32362 36.46988 5811 ft 226 kts 308°
2026-04-24 15:14 41.32931 36.44933 6242 ft 257 kts 274°
2026-04-24 15:15 41.32607 36.42560 7152 ft 260 kts 254°
2026-04-24 15:15 41.32084 36.40260 8380 ft 261 kts 253°
2026-04-24 15:15 41.31577 36.37939 9548 ft 262 kts 253°
2026-04-24 15:15 41.31083 36.35592 10438 ft 270 kts 253°
2026-04-24 15:16 41.30548 36.33080 10725 ft 296 kts 253°
2026-04-24 15:16 41.29955 36.30328 10862 ft 322 kts 253°
2026-04-24 15:16 41.29335 36.27433 11606 ft 325 kts 254°
2026-04-24 15:16 41.28714 36.24539 12471 ft 327 kts 255°
2026-04-24 15:17 41.28087 36.21627 13265 ft 329 kts 255°
2026-04-24 15:17 41.27454 36.18696 14033 ft 331 kts 255°
2026-04-24 15:17 41.26816 36.15735 14656 ft 336 kts 255°
2026-04-24 15:17 41.26167 36.12732 15274 ft 340 kts 255°
2026-04-24 15:18 41.25510 36.09694 15930 ft 344 kts 255°
2026-04-24 15:18 41.25069 36.07665 16378 ft 346 kts 255°
2026-04-24 15:18 41.24398 36.04573 17086 ft 350 kts 255°
2026-04-24 15:18 41.23719 36.01442 17775 ft 355 kts 255°
2026-04-24 15:19 41.23033 35.98279 18489 ft 358 kts 255°
2026-04-24 15:19 41.22348 35.95085 19130 ft 362 kts 255°
2026-04-24 15:19 41.21352 35.91988 19740 ft 368 kts 244°
2026-04-24 15:19 41.19888 35.89168 20431 ft 375 kts 233°
2026-04-24 15:20 41.17998 35.86731 21082 ft 382 kts 224°
2026-04-24 15:20 41.15947 35.84450 21696 ft 387 kts 224°
2026-04-24 15:20 41.13885 35.82123 22306 ft 391 kts 224°
2026-04-24 15:20 41.11810 35.79766 22957 ft 395 kts 224°
2026-04-24 15:21 41.09707 35.77397 23589 ft 399 kts 224°
2026-04-24 15:21 41.07581 35.75016 24138 ft 401 kts 224°
2026-04-24 15:21 41.05456 35.72610 24713 ft 402 kts 226°
2026-04-24 15:21 41.03551 35.69915 25254 ft 401 kts 234°
2026-04-24 15:22 41.01961 35.66896 25779 ft 400 kts 242°
2026-04-24 15:22 41.00712 35.63605 26357 ft 400 kts 249°
2026-04-24 15:22 40.99724 35.60156 26891 ft 402 kts 251°
2026-04-24 15:23 40.97717 35.53198 28056 ft 407 kts 250°
2026-04-24 15:23 40.95695 35.46139 29204 ft 413 kts 251°
2026-04-24 15:23 40.94670 35.42570 29730 ft 416 kts 250°
2026-04-24 15:24 40.91542 35.31735 31254 ft 422 kts 250°
2026-04-24 15:25 40.89458 35.24534 32620 ft 418 kts 250°
2026-04-24 15:25 40.87384 35.17386 33931 ft 415 kts 250°
2026-04-24 15:26 40.84279 35.06723 35471 ft 415 kts 250°
2026-04-24 15:27 40.81275 34.96449 36927 ft 417 kts 250°
2026-04-24 15:27 40.78126 34.85717 38578 ft 418 kts 250°
2026-04-24 15:28 40.73899 34.71398 40197 ft 422 kts 250°
2026-04-24 15:29 40.71715 34.64198 40974 ft 424 kts 250°
2026-04-24 15:30 40.68437 34.53333 42135 ft 427 kts 249°
2026-04-24 15:31 40.64004 34.38751 43645 ft 430 kts 249°
2026-04-24 15:32 40.59523 34.24084 45023 ft 433 kts 249°
2026-04-24 15:33 40.55011 34.09395 46240 ft 433 kts 249°
2026-04-24 15:33 40.51622 33.98417 46964 ft 431 kts 249°
2026-04-24 15:34 40.49504 33.90948 46962 ft 441 kts 253°
2026-04-24 15:35 40.46611 33.79250 46961 ft 456 kts 252°
2026-04-24 15:35 40.44609 33.71255 46961 ft 465 kts 252°
2026-04-24 15:36 40.42056 33.63385 46956 ft 470 kts 247°
2026-04-24 15:36 40.38116 33.51614 46954 ft 469 kts 247°
2026-04-24 15:37 40.35491 33.43849 46948 ft 469 kts 247°
2026-04-24 15:37 40.32858 33.36030 46962 ft 469 kts 247°
2026-04-24 15:38 40.30212 33.28220 46967 ft 469 kts 247°
2026-04-24 15:38 40.27561 33.20405 46965 ft 470 kts 247°
2026-04-24 15:39 40.24890 33.12593 46966 ft 470 kts 246°
2026-04-24 15:39 40.21268 33.05457 46977 ft 473 kts 234°
2026-04-24 15:40 40.17280 32.98614 46963 ft 473 kts 234°
2026-04-24 15:40 40.13314 32.91788 46975 ft 472 kts 234°
2026-04-24 15:41 40.09307 32.84987 46957 ft 473 kts 232°
2026-04-24 15:41 40.04356 32.79322 46960 ft 478 kts 215°
2026-04-24 15:42 39.98471 32.75270 46995 ft 479 kts 210°
2026-04-24 15:42 39.92560 32.71290 46992 ft 478 kts 210°
2026-04-24 15:43 39.86636 32.67336 46988 ft 478 kts 210°
2026-04-24 15:43 39.80714 32.63378 46991 ft 478 kts 210°
2026-04-24 15:44 39.74778 32.59422 46986 ft 480 kts 210°
2026-04-24 15:44 39.68884 32.55504 46977 ft 478 kts 210°
2026-04-24 15:45 39.62954 32.51565 46978 ft 479 kts 210°
2026-04-24 15:45 39.57022 32.47637 46973 ft 478 kts 210°
2026-04-24 15:46 39.51104 32.43722 46980 ft 478 kts 210°
2026-04-24 15:46 39.45196 32.39779 46973 ft 477 kts 212°
2026-04-24 15:47 39.40092 32.34449 46987 ft 470 kts 230°
2026-04-24 15:47 39.36476 32.27453 46976 ft 468 kts 246°
2026-04-24 15:48 39.34008 32.19679 46991 ft 468 kts 249°
2026-04-24 15:48 39.31543 32.11905 46978 ft 467 kts 249°
2026-04-24 15:49 39.29083 32.04103 46981 ft 470 kts 249°
2026-04-24 15:49 39.26607 31.96308 46979 ft 470 kts 249°
2026-04-24 15:50 39.24130 31.88514 46978 ft 470 kts 249°
2026-04-24 15:50 39.21647 31.80730 46978 ft 470 kts 249°
2026-04-24 15:51 39.19155 31.72950 46967 ft 470 kts 248°
2026-04-24 15:51 39.16656 31.65170 46973 ft 470 kts 248°
2026-04-24 15:52 39.14153 31.57399 46974 ft 470 kts 248°
2026-04-24 15:52 39.11644 31.49630 46975 ft 470 kts 248°
2026-04-24 15:53 39.09124 31.41850 46978 ft 471 kts 248°
2026-04-24 15:53 39.06600 31.34079 46975 ft 471 kts 248°
2026-04-24 15:54 39.04072 31.26315 46981 ft 470 kts 248°
2026-04-24 15:54 39.01535 31.18548 46981 ft 472 kts 248°
2026-04-24 15:55 38.98998 31.10803 46966 ft 470 kts 248°
2026-04-24 15:55 38.96456 31.03057 46959 ft 470 kts 248°
2026-04-24 15:56 38.93907 30.95318 46972 ft 471 kts 248°
2026-04-24 15:56 38.91364 30.87614 46967 ft 472 kts 248°
2026-04-24 15:57 38.88801 30.79873 46959 ft 470 kts 248°
2026-04-24 15:57 38.86235 30.72143 46961 ft 471 kts 248°
2026-04-24 15:58 38.83664 30.64418 46951 ft 471 kts 248°
2026-04-24 15:58 38.81102 30.56688 46944 ft 470 kts 249°
2026-04-24 15:59 38.79622 30.48559 46949 ft 468 kts 261°
2026-04-24 15:59 38.78555 30.40315 46961 ft 469 kts 261°
2026-04-24 16:00 38.77471 30.32052 46963 ft 470 kts 261°
2026-04-24 16:00 38.76390 30.23782 46959 ft 470 kts 261°
2026-04-24 16:01 38.75295 30.15517 46954 ft 471 kts 261°
2026-04-24 16:01 38.74199 30.07246 46957 ft 473 kts 261°
2026-04-24 16:02 38.73090 29.98954 46951 ft 472 kts 261°
2026-04-24 16:02 38.72071 29.90639 46949 ft 475 kts 262°
2026-04-24 16:03 38.71029 29.82302 46958 ft 474 kts 261°
2026-04-24 16:03 38.69980 29.73975 46947 ft 474 kts 261°
2026-04-24 16:04 38.68932 29.65647 46943 ft 474 kts 261°
2026-04-24 16:04 38.68050 29.58732 46944 ft 474 kts 261°
2026-04-24 16:05 38.66475 29.46236 46929 ft 474 kts 263°
2026-04-24 16:06 38.65269 29.33672 46936 ft 475 kts 263°
2026-04-24 16:07 38.64042 29.21111 46947 ft 475 kts 263°
2026-04-24 16:07 38.62797 29.08539 46945 ft 475 kts 263°
2026-04-24 16:08 38.61520 28.96039 46935 ft 475 kts 263°
2026-04-24 16:09 38.60232 28.83490 46945 ft 474 kts 263°
2026-04-24 16:09 38.59365 28.75125 46929 ft 474 kts 263°
2026-04-24 16:11 38.56527 28.54360 46933 ft 477 kts 255°
2026-04-24 16:11 38.54720 28.46217 46927 ft 476 kts 255°
2026-04-24 16:12 38.52038 28.34015 46932 ft 477 kts 255°
2026-04-24 16:13 38.49619 28.21713 46929 ft 476 kts 260°
2026-04-24 16:14 38.47246 28.05074 46929 ft 477 kts 260°
2026-04-24 16:14 38.45452 27.92610 46921 ft 476 kts 260°
2026-04-24 16:15 38.43648 27.80245 46164 ft 463 kts 260°
2026-04-24 16:16 38.42486 27.72338 44965 ft 445 kts 260°
2026-04-24 16:16 38.41921 27.68501 44361 ft 436 kts 260°
2026-04-24 16:17 38.40254 27.57227 42658 ft 433 kts 259°
2026-04-24 16:17 38.39126 27.49653 41508 ft 436 kts 259°
2026-04-24 16:18 38.37994 27.42076 40367 ft 436 kts 259°
2026-04-24 16:18 38.36864 27.34506 39222 ft 437 kts 259°
2026-04-24 16:18 38.36288 27.30673 38645 ft 437 kts 258°
2026-04-24 16:19 38.35147 27.23110 37435 ft 433 kts 258°
2026-04-24 16:19 38.34580 27.19356 36869 ft 431 kts 258°
2026-04-24 16:20 38.33441 27.11848 35760 ft 438 kts 259°
2026-04-24 16:20 38.32176 27.04299 34595 ft 435 kts 253°
2026-04-24 16:20 38.31029 27.00751 34027 ft 434 kts 244°
2026-04-24 16:21 38.27584 26.94685 32871 ft 417 kts 230°
2026-04-24 16:21 38.25658 26.91924 32317 ft 417 kts 230°
2026-04-24 16:21 38.23752 26.89154 31758 ft 414 kts 231°
2026-04-24 16:22 38.21861 26.86405 31227 ft 414 kts 230°
2026-04-24 16:22 38.18009 26.80858 30110 ft 413 kts 230°
2026-04-24 16:22 38.16121 26.78141 29526 ft 408 kts 230°
2026-04-24 16:23 38.14266 26.75462 28991 ft 397 kts 230°
2026-04-24 16:23 38.12445 26.72838 28471 ft 396 kts 230°
2026-04-24 16:23 38.10624 26.70221 27949 ft 395 kts 230°
2026-04-24 16:24 38.06997 26.65014 26917 ft 393 kts 230°
2026-04-24 16:24 38.05187 26.62417 26402 ft 391 kts 230°
2026-04-24 16:24 38.03389 26.59840 25888 ft 390 kts 230°
2026-04-24 16:24 38.01590 26.57263 25374 ft 389 kts 230°
2026-04-24 16:25 37.99791 26.54689 24848 ft 392 kts 230°
2026-04-24 16:25 37.98018 26.52115 24346 ft 386 kts 232°
2026-04-24 16:25 37.96399 26.49403 23847 ft 385 kts 234°
2026-04-24 16:26 37.93192 26.44010 22795 ft 381 kts 234°
2026-04-24 16:26 37.91589 26.41349 22294 ft 379 kts 234°
2026-04-24 16:26 37.88417 26.36065 21301 ft 375 kts 234°
2026-04-24 16:27 37.86839 26.33444 20808 ft 373 kts 234°
2026-04-24 16:27 37.85274 26.30846 20318 ft 371 kts 234°
2026-04-24 16:27 37.83717 26.28248 19823 ft 372 kts 234°
2026-04-24 16:27 37.82160 26.25651 19351 ft 369 kts 234°
2026-04-24 16:28 37.80613 26.23082 18861 ft 366 kts 234°
2026-04-24 16:28 37.79071 26.20523 18378 ft 364 kts 234°
2026-04-24 16:28 37.76015 26.15448 17386 ft 362 kts 234°
2026-04-24 16:29 37.74487 26.12918 16913 ft 362 kts 234°
2026-04-24 16:29 37.72961 26.10395 16436 ft 361 kts 233°
2026-04-24 16:29 37.69915 26.05370 15489 ft 359 kts 233°
2026-04-24 16:30 37.66906 26.00411 14554 ft 355 kts 233°
2026-04-24 16:30 37.65403 25.97937 14103 ft 352 kts 232°
2026-04-24 16:30 37.63898 25.95462 13623 ft 353 kts 232°
2026-04-24 16:31 37.62425 25.93039 13153 ft 352 kts 232°
2026-04-24 16:31 37.60922 25.90573 12685 ft 353 kts 232°
2026-04-24 16:31 37.59432 25.88128 12224 ft 354 kts 232°
2026-04-24 16:31 37.57947 25.85692 11761 ft 352 kts 232°
2026-04-24 16:32 37.56938 25.84045 11448 ft 351 kts 232°
2026-04-24 16:32 37.55019 25.80920 10852 ft 324 kts 232°
2026-04-24 16:32 37.53685 25.78746 10431 ft 303 kts 232°
2026-04-24 16:32 37.52425 25.76690 10042 ft 293 kts 232°
2026-04-24 16:33 37.51184 25.74670 9653 ft 291 kts 232°
2026-04-24 16:33 37.49951 25.72665 9264 ft 289 kts 232°
2026-04-24 16:33 37.48724 25.70668 8886 ft 289 kts 232°
2026-04-24 16:33 37.47501 25.68680 8508 ft 287 kts 232°
2026-04-24 16:34 37.46280 25.66696 8127 ft 287 kts 232°
2026-04-24 16:34 37.45098 25.64670 7421 ft 287 kts 240°
2026-04-24 16:34 37.44621 25.62258 6480 ft 287 kts 272°
2026-04-24 16:34 37.44789 25.59781 5731 ft 282 kts 281°
2026-04-24 16:35 37.45025 25.57359 5008 ft 274 kts 285°
2026-04-24 16:35 37.45913 25.55321 4057 ft 265 kts 319°
2026-04-24 16:35 37.47514 25.54302 3125 ft 259 kts 352°
2026-04-24 16:35 37.49162 25.54331 2450 ft 217 kts
2026-04-24 16:36 37.50606 25.54585 2000 ft 213 kts
2026-04-24 16:36 37.52009 25.54859 1998 ft 200 kts
2026-04-24 16:36 37.53380 25.55126 1992 ft 196 kts
2026-04-24 16:36 37.54726 25.55387 1993 ft 198 kts
2026-04-24 16:37 37.56107 25.55703 1978 ft 208 kts 16°
2026-04-24 16:37 37.57212 25.56871 1912 ft 214 kts 57°
2026-04-24 16:37 37.57437 25.58139 1929 ft 227 kts 84°
2026-04-24 16:37 37.56992 25.60766 2021 ft 234 kts 100°
2026-04-24 16:38 37.56582 25.62748 2014 ft 235 kts 99°
2026-04-24 16:38 37.56143 25.64721 1978 ft 236 kts 107°
2026-04-24 16:38 37.55039 25.66303 1911 ft 250 kts 147°
2026-04-24 16:38 37.53345 25.66698 1934 ft 252 kts 183°
2026-04-24 16:39 37.51588 25.66378 2014 ft 253 kts 189°
2026-04-24 16:39 37.49877 25.66025 2000 ft 243 kts 189°
2026-04-24 16:39 37.48228 25.65685 1994 ft 236 kts 189°
2026-04-24 16:39 37.46590 25.65346 1991 ft 238 kts 189°
2026-04-24 16:40 37.44958 25.65000 1994 ft 238 kts 189°
2026-04-24 16:40 37.43273 25.64646 2391 ft 254 kts 189°
2026-04-24 16:40 37.41607 25.64306 3453 ft 246 kts 187°
2026-04-24 16:40 37.39915 25.63915 3486 ft 246 kts 189°
2026-04-24 16:41 37.38282 25.63520 3479 ft 240 kts 189°
2026-04-24 16:41 37.36633 25.63132 3485 ft 244 kts 189°
2026-04-24 16:41 37.34973 25.62726 3489 ft 250 kts 190°
2026-04-24 16:41 37.33242 25.62318 3500 ft 257 kts 189°
2026-04-24 16:42 37.31511 25.61916 3501 ft 256 kts 189°
2026-04-24 16:42 37.29807 25.61536 3476 ft 244 kts 185°
2026-04-24 16:42 37.28201 25.62005 3385 ft 237 kts 144°
2026-04-24 16:42 37.27201 25.63554 3425 ft 228 kts 112°
2026-04-24 16:43 37.26804 25.65453 3472 ft 224 kts 88°
2026-04-24 16:43 37.27087 25.67327 3481 ft 218 kts 64°
2026-04-24 16:43 37.27959 25.68845 3485 ft 220 kts 41°
2026-04-24 16:43 37.29266 25.69749 3477 ft 219 kts 17°
2026-04-24 16:44 37.30758 25.69866 3476 ft 214 kts 354°
2026-04-24 16:44 37.32161 25.69153 3475 ft 224 kts 330°
2026-04-24 16:44 37.33234 25.67729 3475 ft 229 kts 307°
2026-04-24 16:44 37.33774 25.65812 3475 ft 239 kts 283°
2026-04-24 16:45 37.33673 25.63721 3472 ft 244 kts 258°
2026-04-24 16:45 37.32926 25.61795 3481 ft 252 kts 237°
2026-04-24 16:45 37.31973 25.60013 3502 ft 244 kts 238°
2026-04-24 16:45 37.31125 25.58183 3445 ft 244 kts 253°
2026-04-24 16:46 37.31159 25.56132 3411 ft 234 kts 295°
2026-04-24 16:46 37.32129 25.54574 3489 ft 227 kts 321°
2026-04-24 16:46 37.33244 25.53157 3510 ft 230 kts 315°
2026-04-24 16:46 37.34206 25.51547 3507 ft 230 kts 309°
2026-04-24 16:47 37.35110 25.49888 3504 ft 230 kts 309°
2026-04-24 16:47 37.36042 25.48260 3498 ft 230 kts 310°
2026-04-24 16:47 37.36986 25.46645 3498 ft 229 kts 310°
2026-04-24 16:47 37.37926 25.45026 3499 ft 230 kts 310°
2026-04-24 16:48 37.38869 25.43393 3497 ft 231 kts 310°
2026-04-24 16:48 37.39812 25.41758 3495 ft 231 kts 310°
2026-04-24 16:48 37.40752 25.40129 3491 ft 229 kts 310°
2026-04-24 16:48 37.41686 25.38509 3480 ft 228 kts 311°
2026-04-24 16:49 37.42616 25.36900 3490 ft 228 kts 311°
2026-04-24 16:49 37.43540 25.35294 3494 ft 224 kts 311°
2026-04-24 16:49 37.44413 25.33624 3462 ft 233 kts 299°
2026-04-24 16:49 37.44682 25.31591 3488 ft 241 kts 276°
2026-04-24 16:50 37.44711 25.30197 3509 ft 240 kts 275°
2026-04-24 16:50 37.44779 25.27416 3502 ft 240 kts 276°
2026-04-24 16:50 37.44839 25.25323 3506 ft 239 kts 276°
2026-04-24 16:50 37.44888 25.23224 3497 ft 240 kts 274°
2026-04-24 16:51 37.44450 25.21187 3426 ft 247 kts 241°
2026-04-24 16:51 37.43230 25.19665 3452 ft 251 kts 210°
2026-04-24 16:51 37.41570 25.19124 3470 ft 247 kts 178°
2026-04-24 16:51 37.39943 25.19682 3477 ft 242 kts 147°
2026-04-24 16:52 37.38776 25.21116 3486 ft 232 kts 117°
2026-04-24 16:52 37.38300 25.23001 3492 ft 224 kts 90°
2026-04-24 16:52 37.38549 25.24886 3490 ft 217 kts 65°
2026-04-24 16:52 37.39075 25.25970 3491 ft 215 kts 49°
2026-04-24 16:53 37.40093 25.27351 3520 ft 216 kts 45°
2026-04-24 16:53 37.41115 25.28730 3505 ft 215 kts 46°
2026-04-24 16:53 37.42297 25.29834 3435 ft 215 kts 19°
2026-04-24 16:53 37.43743 25.29677 3416 ft 221 kts 338°
2026-04-24 16:54 37.44771 25.28233 3432 ft 233 kts 297°
2026-04-24 16:54 37.44988 25.26190 3518 ft 240 kts 274°
2026-04-24 16:54 37.44929 25.24081 3525 ft 242 kts 271°
2026-04-24 16:54 37.44735 25.21975 3471 ft 245 kts 257°
2026-04-24 16:55 37.43795 25.20188 3470 ft 249 kts 224°
2026-04-24 16:55 37.42257 25.19213 3468 ft 249 kts 191°
2026-04-24 16:55 37.40564 25.19334 3474 ft 245 kts 159°
2026-04-24 16:55 37.39168 25.20462 3479 ft 237 kts 128°
2026-04-24 16:56 37.38400 25.22225 3479 ft 228 kts 101°
2026-04-24 16:56 37.38367 25.24162 3478 ft 220 kts 75°
2026-04-24 16:56 37.39004 25.25860 3493 ft 215 kts 51°
2026-04-24 16:56 37.40013 25.27240 3515 ft 216 kts 45°
2026-04-24 16:57 37.41150 25.28471 3509 ft 215 kts 38°
2026-04-24 16:57 37.42278 25.29704 3503 ft 214 kts 43°
2026-04-24 16:57 37.43059 25.31290 3457 ft 217 kts 69°
2026-04-24 16:57 37.43136 25.33226 3489 ft 225 kts 93°
2026-04-24 16:58 37.42749 25.35147 3497 ft 229 kts 103°
2026-04-24 16:58 37.42104 25.36997 3469 ft 236 kts 118°
2026-04-24 16:58 37.41006 25.38556 3470 ft 249 kts 130°
2026-04-24 16:58 37.39805 25.40122 3347 ft 239 kts 128°
2026-04-24 16:59 37.38732 25.41561 3137 ft 225 kts 128°
2026-04-24 16:59 37.37685 25.42994 2677 ft 222 kts 127°
2026-04-24 16:59 37.35490 25.45725 2059 ft 225 kts 142°
2026-04-24 17:00 37.33964 25.46245 2015 ft 234 kts 179°
2026-04-24 17:00 37.31808 25.43864 1980 ft 203 kts 270°
2026-04-24 17:00 37.32240 25.42320 1997 ft 183 kts 319°
2026-04-24 17:01 37.34002 25.40024 2131 ft 176 kts 327°
2026-04-24 17:01 37.34985 25.39333 2089 ft 154 kts 340°
2026-04-24 17:02 37.36891 25.38260 2059 ft 151 kts 342°
2026-04-24 17:02 37.37774 25.37617 1855 ft 142 kts 329°
2026-04-24 17:02 37.38502 25.36931 1576 ft 119 kts 334°
2026-04-24 17:02 37.39241 25.36479 1302 ft 116 kts 346°
2026-04-24 17:03 37.40703 25.35995 875 ft 110 kts 348°
2026-04-24 17:03 37.41441 25.35730 691 ft 111 kts 347°
2026-04-24 17:03 37.42139 25.35426 564 ft 101 kts 347°
2026-04-24 17:04 37.42827 25.35124 436 ft 106 kts 343°
2026-04-24 17:04 37.43867 25.34666 408 ft 30 kts 340°
2026-04-24 17:04 37.44060 25.34579 405 ft 40 kts 341°
2026-04-24 17:05 37.44249 25.34485 402 ft 13 kts 311°
2026-04-24 17:05 37.44292 25.34467 401 ft 1 kts 78°
2026-04-24 17:05 37.44183 25.34526 403 ft 22 kts 159°
2026-04-24 17:06 37.43994 25.34610 407 ft 38 kts 160°
2026-04-24 17:06 37.43705 25.34740 407 ft 11 kts 162°
2026-04-24 17:06 37.43630 25.34770 406 ft 14 kts 162°
2026-04-24 17:07 37.43559 25.34802 405 ft 19 kts 159°
2026-04-24 17:07 37.43409 25.34833 407 ft 11 kts 240°
2026-04-24 17:07 37.43394 25.34715 404 ft 0 kts 251°
2026-04-24 17:12 37.43394 25.34714 404 ft 0 kts 251°